FW0810 Weather Reports


Display with metric or nautical units.
time (UTC)temp
F
wind
direction
speed
MPH
gust
MPH
rain 1hr
in
rain 24hr
in
rain mn
in
humidity
%
barometer
mb
20260505223800 62 127 0.0 3.0 0.00 0.07 0.00 82 1017.2
20260505223301 62 153 0.0 3.0 0.00 0.07 0.00 82 1017.3
20260505222259 62 142 0.0 1.0 0.00 0.07 0.00 82 1017.3
20260505221759 62 142 0.0 4.0 0.00 0.07 0.00 82 1017.3
20260505221256 62 139 0.0 4.0 0.00 0.07 0.00 82 1017.3
20260505220757 62 192 0.0 2.0 0.00 0.07 0.00 82 1017.3
20260505220258 63 192 0.0 4.0 0.00 0.07 0.00 82 1017.4
20260505215253 63 104 0.0 0.0 0.00 0.07 0.07 81 1017.5
20260505214753 63 104 0.0 1.0 0.00 0.07 0.07 81 1017.5
20260505214254 63 104 0.0 1.0 0.00 0.07 0.07 82 1017.7
20260505213753 63 27 0.0 0.0 0.00 0.07 0.07 82 1017.7
20260505213252 63 26 0.0 0.0 0.00 0.07 0.07 81 1017.7
20260505212752 63 26 0.0 0.0 0.00 0.07 0.07 82 1017.7
20260505211752 63 26 0.0 0.0 0.00 0.07 0.07 81 1017.7
20260505211253 63 26 0.0 0.0 0.00 0.07 0.07 81 1017.7
20260505210752 63 26 0.0 0.0 0.00 0.07 0.07 81 1017.9
20260505210255 63 26 0.0 0.0 0.00 0.07 0.07 81 1017.9
20260505205753 63 26 0.0 0.0 0.00 0.07 0.07 81 1017.9
20260505204753 63 29 0.0 0.0 0.00 0.07 0.07 81 1017.7
20260505204254 63 29 0.0 0.0 0.00 0.07 0.07 81 1017.8
20260505203755 63 29 0.0 0.0 0.00 0.07 0.07 81 1017.8
20260505203251 63 29 0.0 0.0 0.00 0.07 0.07 81 1017.9
20260505202751 63 29 0.0 0.0 0.00 0.07 0.07 81 1017.8
20260505202251 63 29 0.0 0.0 0.00 0.07 0.07 81 1017.8
20260505201752 63 29 0.0 0.0 0.00 0.07 0.07 81 1017.8
20260505200247 63 15 0.0 0.0 0.00 0.07 0.07 82 1017.8
20260505195744 63 1 0.0 1.0 0.00 0.07 0.07 82 1017.9
20260505195245 63 1 0.0 1.0 0.00 0.07 0.07 82 1017.9
20260505194743 63 97 0.0 0.0 0.00 0.07 0.07 82 1017.8
20260505194244 63 97 0.0 0.0 0.00 0.07 0.07 82 1017.7
20260505193739 63 171 0.0 0.0 0.00 0.07 0.07 82 1017.8
20260505192736 62 203 2.0 7.0 0.00 0.07 0.07 82 1017.5
20260505192233 62 127 1.0 7.0 0.00 0.07 0.07 82 1017.4
20260505191733 62 131 1.0 4.0 0.00 0.07 0.07 82 1017.3
20260505191228 63 247 0.0 4.0 0.00 0.07 0.07 82 1017.4
20260505190720 63 177 1.0 5.0 0.00 0.07 0.07 82 1017.3
20260505190213 63 192 1.0 5.0 0.00 0.07 0.07 82 1017.3
20260505185709 63 129 0.0 3.0 0.00 0.07 0.07 83 1017.4
20260505185205 63 93 0.0 0.0 0.00 0.07 0.07 83 1017.3
20260505184658 63 92 0.0 2.0 0.00 0.07 0.07 82 1017.3
20260505184150 63 95 0.0 2.0 0.00 0.07 0.07 82 1017.3
20260505183644 63 84 0.0 3.0 0.00 0.07 0.07 82 1017.1
20260505183140 63 158 0.0 3.0 0.00 0.07 0.07 82 1017.1
20260505182631 63 112 0.0 5.0 0.00 0.07 0.07 82 1017.2
20260505181621 63 103 0.0 11.0 0.00 0.07 0.07 82 1017.1
20260505181114 63 176 0.0 11.0 0.00 0.07 0.07 82 1017.0
20260505180609 63 176 0.0 0.0 0.00 0.07 0.07 82 1016.9
20260505180109 63 193 0.0 0.0 0.00 0.07 0.07 82 1017.1
20260505175049 63 177 1.0 9.0 0.00 0.07 0.07 81 1017.0
20260505174546 63 162 1.0 7.0 0.00 0.07 0.07 81 1016.9
20260505173532 64 110 1.0 9.0 0.00 0.07 0.07 80 1017.1
20260505173028 64 153 1.0 9.0 0.00 0.07 0.07 80 1017.2
20260505172529 64 284 1.0 4.0 0.00 0.07 0.07 80 1017.1
20260505172026 64 122 1.0 7.0 0.00 0.07 0.07 80 1017.1
20260505171524 64 173 1.0 7.0 0.00 0.07 0.07 80 1016.9
20260505171026 64 122 0.0 5.0 0.00 0.07 0.07 80 1017.1
20260505170524 64 208 1.0 8.0 0.00 0.07 0.07 80 1017.1
20260505170027 64 135 0.0 8.0 0.00 0.07 0.07 80 1017.1
20260505165522 64 109 0.0 2.0 0.00 0.07 0.07 80 1017.0
20260505165023 64 78 0.0 2.0 0.00 0.07 0.07 80 1017.0
20260505164021 64 266 0.0 4.0 0.00 0.07 0.07 80 1017.0
20260505163521 64 91 0.0 4.0 0.00 0.07 0.07 80 1016.9
20260505163021 64 108 0.0 2.0 0.00 0.07 0.07 80 1016.9
20260505162522 64 106 0.0 5.0 0.00 0.07 0.07 80 1017.1
20260505162019 64 141 1.0 11.0 0.00 0.07 0.07 79 1017.1
20260505161516 64 179 2.0 11.0 0.00 0.07 0.07 79 1017.2
20260505161020 65 285 2.0 12.0 0.00 0.07 0.07 79 1017.3
20260505160516 65 160 2.0 12.0 0.00 0.07 0.07 79 1017.2
20260505153014 65 262 1.0 7.0 0.01 0.07 0.07 78 1017.4
20260505152512 65 260 1.0 5.0 0.01 0.07 0.07 79 1017.4
20260505152013 65 188 1.0 7.0 0.01 0.07 0.07 79 1017.4
20260505151510 65 217 1.0 7.0 0.01 0.07 0.07 79 1017.4
20260505151008 65 305 2.0 10.0 0.01 0.07 0.07 79 1017.3
20260505140458 64 144 0.0 2.0 0.00 0.06 0.06 79 1017.5
20260505124948 63 165 0.0 7.0 0.00 0.06 0.06 78 1018.0
20260505123947 63 286 0.0 2.0 0.00 0.06 0.06 77 1018.2
20260505123446 63 116 0.0 6.0 0.00 0.06 0.06 78 1018.2
20260505122956 64 116 1.0 6.0 0.00 0.06 0.06 77 1018.2
20260505122442 64 208 1.0 10.0 0.00 0.06 0.06 77 1018.3
20260505121943 64 145 1.0 10.0 0.00 0.06 0.06 77 1018.2
20260505121443 64 44 0.0 4.0 0.00 0.06 0.06 77 1018.3
20260505120942 63 90 0.0 3.0 0.00 0.06 0.06 78 1018.2
20260505120443 63 93 0.0 3.0 0.00 0.06 0.06 77 1018.2
20260505115940 63 284 0.0 3.0 0.00 0.06 0.06 78 1018.3
20260505115440 62 342 1.0 3.0 0.00 0.06 0.06 78 1018.3
20260505113940 62 351 1.0 7.0 0.00 0.06 0.06 77 1018.5
20260505112941 62 336 1.0 6.0 0.00 0.06 0.06 77 1018.5
20260505112438 62 262 0.0 3.0 0.00 0.06 0.06 78 1018.5
20260505111938 62 259 1.0 12.0 0.00 0.06 0.06 78 1018.5
20260505111439 62 105 1.0 12.0 0.00 0.06 0.06 77 1018.6
20260505110938 62 1 1.0 6.0 0.00 0.06 0.06 78 1018.6
20260505110438 62 239 1.0 7.0 0.00 0.06 0.06 79 1018.5
20260505101928 61 255 0.0 3.0 0.00 0.06 0.06 81 1018.7
20260505101426 61 255 1.0 5.0 0.00 0.06 0.06 81 1018.7
20260505100926 60 269 1.0 6.0 0.00 0.06 0.06 80 1018.7
20260505100438 60 72 0.0 6.0 0.00 0.06 0.06 82 1018.6
20260505095422 60 20 0.0 1.0 0.00 0.06 0.06 84 1018.6
20260505094922 60 11 0.0 4.0 0.00 0.06 0.06 84 1018.7
20260505094420 60 100 1.0 6.0 0.00 0.06 0.06 84 1018.7
20260505093919 59 358 2.0 6.0 0.00 0.06 0.06 84 1018.7
20260505093417 60 75 2.0 5.0 0.00 0.06 0.06 84 1018.9
20260505091353 60 91 0.0 2.0 0.00 0.06 0.06 85 1018.6
20260505090848 59 91 0.0 5.0 0.00 0.06 0.06 85 1018.5
20260505090343 59 93 0.0 5.0 0.00 0.06 0.06 85 1018.6
20260505085838 59 84 0.0 6.0 0.00 0.06 0.06 85 1018.6
20260505085331 59 84 1.0 6.0 0.00 0.06 0.06 86 1018.6
20260505084823 59 112 2.0 6.0 0.00 0.06 0.06 85 1018.5
20260505084318 59 77 1.0 6.0 0.00 0.06 0.06 86 1018.5
20260505083812 59 105 1.0 4.0 0.00 0.06 0.06 86 1018.5
20260505082801 58 203 0.0 5.0 0.00 0.06 0.06 86 1018.4
20260505082251 58 89 1.0 7.0 0.00 0.06 0.06 87 1018.4
20260505080733 58 84 1.0 4.0 0.00 0.06 0.06 87 1018.3
20260505080227 58 94 1.0 4.0 0.00 0.06 0.06 87 1018.5
20260505075721 58 94 1.0 7.0 0.00 0.06 0.06 86 1018.3
20260505075216 58 84 1.0 7.0 0.00 0.06 0.06 86 1018.5
20260505074709 58 88 2.0 6.0 0.00 0.06 0.06 87 1018.5
20260505074206 58 72 1.0 5.0 0.00 0.06 0.06 87 1018.3
20260505073659 58 62 0.0 4.0 0.00 0.06 0.06 87 1018.4
20260505072139 58 273 1.0 5.0 0.00 0.06 0.06 87 1018.6
20260505071635 58 97 0.0 5.0 0.00 0.06 0.06 87 1018.5
20260505071127 58 82 0.0 0.0 0.00 0.06 0.06 88 1018.6
20260505070621 57 82 1.0 5.0 0.00 0.06 0.06 88 1018.5
20260505070118 57 82 1.0 5.0 0.00 0.06 0.06 88 1018.6
20260505065612 57 82 0.0 4.0 0.00 0.06 0.06 88 1018.4
20260505065109 57 79 0.0 3.0 0.00 0.06 0.06 88 1018.6
20260505064609 57 86 0.0 2.0 0.00 0.06 0.06 88 1018.5
20260505063607 57 112 0.0 1.0 0.01 0.06 0.06 88 1018.4
20260505063107 57 113 0.0 1.0 0.01 0.06 0.06 88 1018.4
20260505062103 56 28 0.0 4.0 0.01 0.06 0.06 88 1018.5
20260505061603 56 13 0.0 5.0 0.01 0.06 0.06 88 1018.4
20260505061102 56 55 0.0 5.0 0.01 0.06 0.06 89 1018.3
20260505060111 56 67 0.0 5.0 0.01 0.06 0.06 89 1018.2
20260505055555 56 64 0.0 5.0 0.01 0.06 0.06 89 1018.3
20260505055053 56 91 0.0 0.0 0.01 0.06 0.06 90 1018.2
20260505054051 56 99 0.0 0.0 0.02 0.06 0.06 89 1018.4
20260505053049 56 99 0.0 0.0 0.01 0.06 0.06 90 1018.3
20260505052602 56 102 0.0 0.0 0.01 0.06 0.06 90 1018.2
20260505051550 56 102 0.0 0.0 0.01 0.06 0.06 90 1018.2
20260505051043 56 102 0.0 0.0 0.01 0.06 0.06 90 1018.1
20260505050536 56 102 0.0 0.0 0.02 0.06 0.06 90 1018.1
20260505041501 56 96 0.0 2.0 0.04 0.05 0.05 89 1018.1
20260505040959 56 95 0.0 2.0 0.04 0.05 0.05 89 1017.9
20260505040457 56 94 0.0 0.0 0.03 0.04 0.04 88 1017.9
20260505035955 56 94 0.0 0.0 0.02 0.03 0.03 88 1018.1
20260505034954 56 94 0.0 2.0 0.03 0.03 0.03 87 1018.1
20260505034455 56 95 0.0 2.0 0.02 0.02 0.02 87 1018.1
20260505033955 56 95 0.0 2.0 0.02 0.02 0.02 86 1018.1
20260505033454 56 97 0.0 2.0 0.02 0.02 0.02 86 1018.3
20260505032953 57 90 0.0 0.0 0.02 0.02 0.02 86 1018.2
20260505032451 57 90 0.0 0.0 0.02 0.02 0.02 85 1018.3
20260505031949 57 90 0.0 0.0 0.02 0.02 0.02 84 1018.3
20260505031449 57 89 0.0 0.0 0.01 0.01 0.01 83 1018.4
20260505030949 57 89 0.0 0.0 0.01 0.01 0.01 83 1018.5
20260505025945 57 91 0.0 0.0 0.01 0.01 0.01 83 1018.4
20260505025445 57 83 0.0 1.0 0.01 0.01 0.01 84 1018.6
20260505024945 57 96 0.0 1.0 0.00 0.00 0.00 83 1018.7
20260505024443 57 98 0.0 0.0 0.00 0.00 0.00 84 1018.7
20260505023941 57 98 0.0 0.0 0.00 0.00 0.00 84 1018.7
20260505023440 57 98 0.0 0.0 0.00 0.00 0.00 85 1018.8
20260505022942 57 98 0.0 3.0 0.00 0.00 0.00 84 1018.8
20260505022438 57 98 0.0 3.0 0.00 0.00 0.00 85 1018.9
20260505021937 57 161 0.0 0.0 0.00 0.00 0.00 85 1019.0
20260505021439 57 162 0.0 0.0 0.00 0.00 0.00 85 1019.0
20260505020936 57 162 0.0 0.0 0.00 0.00 0.00 85 1018.9
20260505020438 57 162 0.0 0.0 0.00 0.00 0.00 85 1019.0
20260505015937 57 162 0.0 0.0 0.00 0.00 0.00 85 1019.0
20260505014937 57 162 0.0 0.0 0.00 0.00 0.00 85 1019.1
20260505013937 57 162 0.0 0.0 0.00 0.00 0.00 84 1019.0
20260505013438 58 162 0.0 0.0 0.00 0.00 0.00 84 1019.1
20260505012933 58 162 0.0 0.0 0.00 0.00 0.00 83 1019.2
20260505012433 58 162 0.0 0.0 0.00 0.00 0.00 82 1019.2
20260505011933 58 162 0.0 0.0 0.00 0.00 0.00 82 1019.3
20260505011434 58 162 0.0 0.0 0.00 0.00 0.00 81 1019.4
20260505010933 58 162 0.0 0.0 0.00 0.00 0.00 81 1019.4
20260505010433 58 162 0.0 0.0 0.00 0.00 0.00 80 1019.5
20260505005433 58 162 0.0 0.0 0.00 0.00 0.00 80 1019.6
20260505004933 58 162 0.0 0.0 0.00 0.00 0.00 80 1019.6
20260505004429 58 162 0.0 0.0 0.00 0.00 0.00 81 1019.6
20260505003929 58 162 0.0 0.0 0.00 0.00 0.00 81 1019.7
20260505003428 58 162 0.0 0.0 0.00 0.00 0.00 81 1019.7
20260505002933 58 162 0.0 0.0 0.00 0.00 0.00 81 1019.7
20260505002428 58 162 0.0 0.0 0.00 0.00 0.00 81 1019.6
20260505001427 58 162 0.0 0.0 0.00 0.00 0.00 82 1019.8
20260505000925 58 162 0.0 0.0 0.00 0.00 0.00 81 1019.8
20260505000427 59 162 0.0 0.0 0.00 0.00 0.00 80 1020.0
20260504235921 59 162 0.0 0.0 0.00 0.00 0.00 79 1020.2
20260504235419 59 162 0.0 0.0 0.00 0.00 0.00 78 1020.3
20260504234921 59 162 0.0 0.0 0.00 0.00 0.00 78 1020.4
20260504233907 59 201 0.0 0.0 0.00 0.00 0.00 76 1020.6
20260504232854 59 212 0.0 0.0 0.00 0.00 0.00 76 1020.6
20260504232348 59 212 0.0 0.0 0.00 0.00 0.00 77 1020.6
20260504231844 59 219 0.0 0.0 0.00 0.00 0.00 76 1020.7
20260504231337 59 219 0.0 0.0 0.00 0.00 0.00 77 1020.7
20260504230830 60 219 0.0 0.0 0.00 0.00 0.00 76 1020.8
20260504230327 60 219 0.0 0.0 0.00 0.00 0.00 76 1020.9
20260504225829 60 219 0.0 0.0 0.00 0.00 0.00 76 1020.8
20260504225327 60 219 0.0 0.0 0.00 0.00 0.00 75 1020.9
20260504224825 60 219 0.0 0.0 0.00 0.00 0.00 75 1020.9
20260504224323 60 219 0.0 0.0 0.00 0.00 0.00 74 1021.0